Location: Holyhead Bay
(53.3667°N, 4.6667°W)
Time: 22:50:52
(UTC+00:00)

FENGYUN 1C DEB - Visible Passes

Search period start: 24 June 2021 00:00
Search period end: 04 July 2021 00:00
Orbit: 727 x 850 km, 99.0° (Epoch: 24 June)

Date Brightness Start Highest point End Pass type
(mag) Time Alt. Az. Time Alt. Az. Time Alt. Az.
26 Jun ? 21:48:39 10° NNW 21:51:21 15° NW 21:54:01 10° W visible
29 Jun ? 21:58:44 10° NNW 22:00:52 13° NW 22:02:59 10° WNW visible
02 Jul ? 22:09:00 10° NNW 22:10:21 11° NW 22:11:42 10° WNW visible
03 Jul ? 21:37:48 10° N 21:40:55 17° NW 21:43:58 10° W visible
